Wind_Speed
32 32 34 39 44 49 50 52 57 65 71 79 86 76 61 52 50 56 60 64 66 58 37 22 10 13 16 15 20 29 61 63 62 36 57 58 65 60 56 56 51 56 52 53 54 58 47
33 34 34 39 44 48 49 49 56 62 69 78 86 80 60 50 47 52 59 64 65 56 37 19 9 5 12 14 14 19 56 60 57 35 51 52 58 60 55 54 52 49 49 50 52 60 47
32 34 34 39 42 47 49 48 54 60 66 77 84 82 68 47 46 51 58 61 64 53 39 19 8 5 11 15 17 21 48 62 53 44 41 52 52 64 57 52 51 51 46 38 47 55 51
32 33 32 38 41 44 49 49 51 58 64 73 82 81 61 47 43 48 55 57 58 48 39 22 13 11 5 17 14 24 45 59 58 53 36 46 55 62 53 53 49 48 48 42 40 55 57
31 33 33 35 39 42 47 48 48 55 61 70 80 79 64 48 42 45 51 52 50 37 36 30 16 9 8 3 7 25 47 61 57 50 42 45 47 58 51 51 49 47 44 42 39 43 53
29 31 32 35 37 41 46 46 48 53 59 65 75 80 69 49 42 42 46 45 46 37 29 29 17 12 16 14 15 7 43 59 56 51 38 41 47 49 50 48 48 46 42 38 35 40 43
29 30 30 33 34 39 45 45 46 51 56 63 73 79 71 50 39 39 41 40 40 38 22 22 12 7 11 18 12 13 37 53 54 50 47 40 38 46 50 50 46 40 38 32 30 37 42
27 30 30 31 33 38 42 44 45 47 51 58 69 78 74 58 41 35 38 38 34 37 26 11 10 10 15 13 11 19 37 47 51 45 39 34 37 40 42 47 46 41 38 35 30 33 37
27 28 27 29 32 36 39 42 43 45 49 55 64 73 74 66 44 34 35 35 34 31 34 24 8 7 7 7 9 35 39 40 44 34 38 38 37 37 37 39 45 38 36 35 27 27 35
26 26 29 29 30 33 35 42 43 44 45 52 59 68 72 72 48 35 30 33 32 27 33 32 22 15 6 7 23 41 39 43 38 37 29 30 37 32 34 34 41 36 32 31 30 28 31
25 24 27 28 28 29 34 39 40 41 44 48 56 64 70 74 61 37 27 29 30 25 26 31 32 36 31 22 36 40 43 44 38 23 24 32 33 32 34 36 36 35 31 31 29 28 26
22 22 24 26 24 25 32 37 39 40 43 47 53 59 67 72 66 43 23 21 24 24 15 18 22 20 24 23 20 44 35 35 31 30 23 20 29 33 35 38 34 33 32 32 28 26 23
21 21 25 24 20 24 29 35 37 39 42 44 49 55 64 71 67 48 26 15 19 20 16 6 10 11 14 10 14 23 25 29 30 22 24 22 20 30 36 34 32 33 32 30 28 26 22
19 21 23 21 17 22 25 29 33 39 42 43 46 52 59 67 66 50 37 14 12 14 15 5 5 11 18 8 15 21 25 27 24 26 24 23 24 29 32 33 31 33 31 28 27 25 21
20 22 21 18 13 19 22 26 33 36 41 42 44 49 57 63 62 54 41 13 7 9 11 6 4 1 9 8 17 24 21 22 24 20 22 21 19 22 27 29 29 31 30 28 26 24 20
20 20 20 15 10 17 21 24 29 34 39 41 43 46 53 59 59 57 39 20 4 2 6 3 3 2 6 9 10 24 21 22 29 17 17 19 17 19 21 25 28 28 25 26 25 24 24
20 20 19 15 10 14 18 22 27 31 37 40 42 44 51 56 59 59 39 23 7 8 4 5 6 5 3 7 10 5 18 22 21 18 21 17 18 20 21 23 24 27 29 27 23 25 24
22 20 20 17 12 12 16 20 25 29 36 39 41 42 48 54 60 62 46 27 10 12 12 8 9 12 8 8 10 6 15 21 18 18 23 22 19 21 22 21 22 24 25 25 26 25 26
24 21 19 18 13 12 13 18 21 27 34 37 39 40 47 52 58 61 54 29 15 15 16 13 12 10 12 14 15 14 14 18 22 16 18 19 20 22 23 24 25 27 25 25 26 28 32
25 21 19 18 17 10 13 16 20 24 33 35 37 38 44 49 56 60 59 34 19 14 19 17 17 15 14 15 17 20 22 22 24 23 22 23 23 24 25 24 25 26 26 28 29 31 24
26 22 21 20 17 14 12 18 21 25 32 33 34 37 42 47 53 59 62 42 20 13 21 21 20 19 18 18 18 18 19 23 26 23 25 24 23 25 27 28 28 29 29 28 30 23 26
30 25 21 20 19 19 12 16 20 25 31 33 33 35 40 44 49 57 60 42 20 16 19 22 23 22 21 20 20 21 21 20 19 23 24 23 22 23 26 27 28 27 29 29 28 26 27
32 26 21 19 18 17 13 15 21 25 31 33 31 34 37 42 47 53 58 48 20 18 18 25 24 25 26 24 21 21 21 22 22 22 24 24 23 23 21 21 21 18 20 25 25 24 26
39 26 23 19 17 16 16 17 21 25 31 32 29 33 35 39 45 50 56 47 28 18 19 18 25 25 26 26 25 22 21 21 20 21 24 23 22 21 19 21 21 18 19 22 20 21 24
40 37 29 25 25 22 19 18 21 28 31 29 26 30 34 38 42 46 52 48 28 15 17 13 22 24 24 25 25 23 24 21 18 19 20 22 24 23 22 20 19 17 16 17 19 23 22
43 38 30 28 26 23 16 21 25 32 34 27 27 28 33 37 38 43 48 47 34 15 13 10 20 23 21 22 22 22 24 24 22 19 19 19 18 19 18 18 17 17 17 18 19 22 20
42 35 30 28 27 23 19 25 28 34 29 26 29 28 31 34 34 38 42 45 39 22 10 8 14 23 24 21 22 21 22 23 23 21 19 20 19 18 17 18 16 21 19 19 19 19 19
47 39 36 33 31 31 28 26 30 30 31 32 24 26 27 28 31 34 37 42 39 26 15 9 11 18 26 23 22 19 20 21 19 18 18 17 16 17 17 16 16 17 17 18 18 17 18
41 43 40 38 36 33 30 28 27 32 33 24 21 22 23 24 28 30 34 38 38 34 22 11 7 13 23 31 26 23 21 21 21 19 17 16 15 15 15 16 17 18 18 19 17 18 18
Wind_Direction
315 322 331 339 342 345 347 354 353 354 355 351 353 359 346 340 346 348 352 357 353 353 349 344 322 236 218 220 217 205 197 199 198 200 197 202 201 198 206 204 201 204 211 217 211 211 211
311 320 329 340 341 344 346 352 352 355 356 352 353 1 350 343 346 349 353 358 355 355 350 342 332 263 223 208 209 208 194 195 196 190 199 197 200 198 206 207 206 201 206 216 219 222 216
310 318 328 340 342 342 345 351 353 355 358 353 353 2 357 344 347 348 358 360 357 359 356 352 322 284 231 212 216 203 192 193 193 186 195 197 200 198 202 206 207 204 207 209 217 220 221
312 319 324 338 342 339 342 347 353 353 358 355 351 2 358 347 347 349 0 4 1 5 5 10 2 328 273 215 226 198 187 187 195 193 188 197 199 196 202 204 205 209 210 209 211 216 221
310 320 322 333 338 335 341 346 352 353 357 354 352 3 2 351 347 353 4 8 8 15 19 23 34 50 53 82 207 193 187 183 189 189 182 193 198 196 200 203 204 210 211 212 214 215 222
313 317 322 328 333 335 344 343 350 353 357 353 351 358 3 353 348 354 4 12 11 16 24 35 64 56 71 116 71 144 184 179 183 186 162 190 200 201 199 201 205 206 211 212 217 220 220
312 314 320 326 329 331 341 341 347 353 358 352 352 356 5 358 350 354 2 11 12 19 22 34 42 57 62 20 38 157 177 174 179 185 176 174 195 201 201 202 203 208 212 208 216 217 219
309 313 317 324 326 332 340 341 345 353 356 351 350 356 6 5 351 353 359 6 12 21 22 66 65 32 8 35 79 146 161 169 175 180 165 184 195 195 199 205 205 206 207 211 218 217 219
302 309 314 320 322 330 340 342 346 353 355 352 350 353 1 9 356 354 359 5 6 15 26 18 357 9 355 24 108 137 153 162 168 168 171 185 194 194 198 206 204 204 208 211 218 222 220
298 303 309 316 321 328 340 345 346 351 355 350 350 352 358 9 0 355 357 6 9 10 27 38 40 55 62 109 140 146 149 157 156 161 174 185 196 194 200 204 205 208 211 214 219 223 228
294 300 305 313 321 328 342 345 346 352 358 348 346 349 353 3 9 356 355 2 14 14 33 52 70 76 77 109 139 145 151 152 153 163 189 186 191 197 203 205 206 207 210 215 219 226 231
290 298 303 311 319 326 341 346 348 352 357 352 348 347 346 356 8 1 349 359 14 18 38 61 66 63 43 87 141 156 154 146 150 177 158 168 184 192 194 200 202 204 210 214 220 225 225
284 293 300 307 314 325 342 345 351 357 358 356 352 349 345 351 4 7 353 357 9 22 23 56 63 80 45 73 125 180 169 148 158 153 168 166 182 188 192 193 196 205 208 213 219 227 222
277 287 295 301 310 324 343 346 353 2 1 355 353 351 347 349 358 7 359 348 6 24 21 132 87 70 53 96 139 173 187 187 164 160 162 170 174 186 186 191 201 208 208 212 215 223 227
264 280 293 292 309 324 339 343 354 3 1 356 353 353 348 348 355 4 359 342 338 16 46 84 167 43 53 76 141 164 170 183 196 168 169 186 181 191 193 198 203 208 212 219 223 225 223
261 273 286 280 307 326 336 341 354 0 1 357 353 354 350 348 353 1 360 338 281 315 70 71 184 78 108 84 145 162 173 178 180 181 177 169 179 189 200 206 212 214 217 222 224 228 229
255 265 273 266 301 321 337 338 350 356 1 356 353 355 351 349 350 358 3 341 270 225 209 156 213 230 129 118 137 119 176 183 189 194 192 198 209 205 204 205 207 214 219 224 227 228 230
248 255 267 261 281 308 332 339 350 350 357 354 350 352 351 349 349 350 1 344 284 230 221 206 189 220 195 182 169 170 171 181 177 172 192 202 197 191 199 204 208 210 213 219 223 232 242
246 250 257 262 277 305 330 343 342 358 357 354 348 349 349 350 347 346 354 348 303 232 229 215 216 216 212 216 201 198 191 175 186 198 200 203 201 204 208 210 212 218 225 231 240 246 250
242 243 243 260 278 295 330 339 348 355 357 353 346 346 347 350 349 345 349 348 322 246 230 225 224 221 219 211 209 210 214 211 222 220 210 209 213 217 223 225 230 234 236 241 245 250 263
242 244 247 263 267 287 308 332 345 354 357 352 346 347 348 349 348 344 343 353 318 266 229 226 230 227 227 224 214 209 216 224 227 223 223 224 233 235 236 238 239 239 241 242 241 253 263
239 243 250 256 263 276 306 332 343 352 355 350 345 344 347 351 350 344 343 356 333 286 237 230 227 232 229 231 235 222 215 217 217 216 218 221 229 233 234 238 242 243 243 244 250 258 262
236 243 249 254 267 274 306 338 342 352 360 351 347 345 350 351 352 345 343 351 347 298 264 232 230 234 234 231 231 238 231 221 217 220 225 229 229 233 236 241 247 249 249 250 250 255 261
231 241 250 251 265 279 308 326 338 347 356 351 343 346 352 353 353 346 342 351 360 317 287 246 230 233 236 239 237 237 236 230 231 231 231 233 234 236 238 244 244 240 239 250 258 264 266
232 241 242 255 272 287 302 317 325 337 348 341 336 344 354 354 353 349 343 347 2 327 301 270 233 234 237 236 238 241 243 239 231 228 230 232 236 235 237 241 246 246 247 253 254 258 262
231 234 246 262 270 277 296 315 322 330 336 335 332 335 344 349 351 353 345 348 1 357 320 269 235 233 236 237 237 239 241 245 248 253 256 253 248 245 244 249 251 255 258 254 253 260 263
222 235 242 261 267 273 300 318 317 326 336 336 330 331 341 345 351 354 350 347 354 7 345 274 245 233 232 231 234 233 239 242 247 249 251 250 248 249 248 254 256 253 252 254 253 255 260
226 234 243 256 263 274 289 303 316 322 335 332 333 332 341 345 351 355 355 352 355 2 355 324 260 233 229 232 232 230 234 238 242 240 240 242 241 240 245 248 245 252 250 252 253 253 257
224 230 241 252 262 271 284 298 314 325 333 323 327 338 343 346 351 1 1 358 353 6 2 330 298 238 229 230 231 226 226 227 227 224 228 238 241 246 254 253 251 252 252 255 257 258 255
Height
5808 5804 5798 5794 5787 5779 5770 5760 5751 5738 5725 5713 5696 5681 5667 5655 5644 5633 5618 5603 5587 5571 5559 5554 5551 5551 5555 5557 5560 5564 5579 5595 5611 5622 5634 5648 5660 5673 5685 5697 5707 5717 5726 5734 5742 5745 5754
5805 5801 5795 5790 5784 5776 5766 5757 5748 5737 5723 5710 5695 5680 5663 5653 5642 5630 5617 5602 5585 5570 5559 5553 5552 5552 5553 5556 5558 5561 5572 5587 5604 5618 5630 5644 5658 5669 5681 5692 5703 5713 5722 5729 5734 5740 5748
5800 5796 5792 5787 5780 5773 5763 5755 5746 5734 5722 5708 5693 5678 5664 5649 5640 5629 5616 5602 5586 5570 5559 5553 5551 5551 5552 5553 5554 5558 5567 5584 5601 5615 5628 5642 5652 5666 5678 5689 5698 5708 5715 5723 5730 5736 5742
5796 5792 5788 5783 5777 5770 5761 5752 5743 5732 5719 5708 5693 5678 5662 5650 5639 5629 5618 5603 5587 5572 5562 5555 5552 5551 5549 5550 5553 5557 5564 5583 5598 5615 5628 5642 5650 5662 5673 5684 5693 5702 5710 5718 5726 5732 5740
5792 5788 5784 5779 5773 5766 5759 5751 5741 5731 5720 5707 5693 5676 5661 5649 5639 5630 5620 5605 5592 5578 5570 5560 5556 5554 5554 5554 5554 5556 5564 5580 5598 5614 5628 5640 5648 5659 5672 5681 5690 5698 5708 5717 5724 5728 5736
5787 5783 5780 5776 5770 5763 5757 5748 5739 5729 5718 5707 5693 5678 5662 5649 5639 5631 5622 5609 5598 5585 5578 5571 5565 5566 5561 5559 5558 5561 5568 5582 5601 5616 5630 5641 5649 5659 5670 5679 5690 5700 5706 5713 5719 5726 5732
5783 5780 5776 5772 5767 5761 5754 5746 5737 5727 5717 5705 5693 5679 5663 5649 5640 5633 5624 5614 5606 5593 5584 5582 5576 5572 5569 5566 5566 5567 5576 5589 5603 5617 5631 5641 5649 5660 5670 5679 5688 5696 5704 5710 5715 5720 5726
5779 5776 5772 5768 5764 5758 5751 5743 5734 5726 5717 5705 5692 5679 5664 5652 5642 5635 5627 5619 5609 5600 5592 5588 5584 5580 5576 5573 5572 5573 5582 5596 5609 5621 5633 5643 5650 5660 5670 5678 5685 5693 5699 5706 5711 5716 5721
5775 5772 5767 5763 5760 5755 5749 5741 5732 5723 5715 5705 5694 5681 5667 5654 5644 5638 5630 5622 5614 5607 5599 5590 5586 5583 5581 5581 5580 5582 5593 5602 5616 5627 5637 5644 5652 5660 5669 5675 5684 5691 5698 5704 5710 5714 5717
5770 5767 5763 5759 5757 5751 5746 5738 5730 5722 5714 5705 5694 5683 5670 5658 5648 5638 5632 5626 5619 5612 5605 5598 5590 5585 5584 5583 5586 5592 5601 5612 5622 5631 5639 5644 5653 5661 5668 5674 5682 5689 5696 5701 5707 5711 5714
5765 5762 5759 5755 5753 5748 5743 5736 5728 5720 5712 5703 5694 5683 5671 5658 5648 5640 5634 5629 5623 5617 5612 5608 5601 5596 5591 5593 5596 5602 5610 5617 5627 5634 5641 5647 5653 5660 5667 5673 5680 5688 5694 5699 5704 5707 5711
5760 5758 5754 5751 5748 5745 5740 5733 5725 5718 5710 5702 5694 5683 5672 5661 5651 5641 5635 5631 5627 5623 5618 5616 5614 5608 5607 5610 5612 5613 5618 5625 5630 5637 5643 5648 5652 5658 5664 5671 5679 5686 5691 5696 5701 5704 5707
5754 5752 5749 5747 5744 5741 5736 5730 5722 5716 5709 5701 5693 5683 5672 5661 5655 5643 5636 5633 5630 5625 5621 5621 5620 5619 5618 5619 5622 5621 5623 5627 5634 5640 5645 5649 5654 5659 5665 5672 5678 5683 5688 5693 5698 5701 5704
5747 5747 5744 5743 5740 5737 5733 5727 5720 5714 5706 5699 5691 5683 5673 5662 5653 5644 5636 5633 5630 5629 5625 5622 5623 5623 5622 5623 5625 5628 5629 5632 5637 5643 5647 5650 5655 5660 5665 5671 5678 5681 5686 5690 5693 5697 5702
5740 5740 5739 5738 5736 5733 5728 5724 5718 5711 5704 5697 5690 5682 5672 5661 5652 5644 5636 5631 5630 5629 5627 5626 5626 5626 5627 5627 5629 5631 5634 5638 5641 5645 5650 5653 5657 5661 5665 5670 5676 5679 5683 5689 5692 5695 5699
5733 5734 5733 5733 5731 5728 5724 5720 5714 5707 5701 5695 5688 5680 5672 5661 5652 5644 5636 5631 5628 5629 5629 5628 5628 5628 5629 5629 5631 5635 5637 5639 5643 5646 5649 5654 5657 5660 5666 5670 5673 5677 5683 5686 5688 5691 5693
5725 5726 5727 5727 5726 5724 5719 5716 5710 5704 5698 5692 5686 5678 5670 5660 5652 5642 5635 5629 5627 5627 5628 5629 5630 5629 5630 5631 5632 5635 5638 5641 5643 5645 5648 5653 5656 5660 5663 5666 5669 5674 5677 5680 5685 5686 5688
5717 5719 5720 5720 5720 5719 5715 5712 5707 5702 5695 5690 5683 5676 5669 5660 5652 5641 5633 5625 5624 5624 5623 5625 5626 5628 5630 5631 5632 5634 5636 5640 5643 5646 5650 5652 5654 5657 5661 5665 5667 5671 5673 5676 5678 5682 5683
5710 5711 5713 5714 5714 5713 5711 5707 5703 5698 5692 5687 5680 5674 5667 5659 5649 5638 5629 5623 5620 5620 5621 5623 5624 5627 5628 5629 5632 5633 5636 5638 5641 5644 5647 5649 5652 5655 5659 5663 5664 5666 5670 5673 5675 5676 5676
5702 5704 5707 5707 5707 5708 5706 5702 5698 5693 5688 5683 5677 5671 5666 5657 5646 5636 5626 5620 5617 5615 5615 5618 5620 5622 5626 5627 5628 5631 5633 5636 5638 5641 5644 5647 5650 5653 5656 5658 5661 5663 5665 5667 5668 5668 5672
5694 5697 5699 5699 5700 5702 5700 5697 5693 5689 5684 5679 5673 5668 5663 5654 5644 5633 5623 5616 5611 5610 5612 5615 5617 5618 5622 5624 5626 5627 5630 5632 5635 5638 5641 5644 5647 5649 5651 5654 5656 5658 5660 5661 5662 5666 5664
5685 5689 5691 5693 5694 5696 5694 5691 5688 5684 5679 5675 5670 5665 5660 5652 5641 5630 5620 5612 5607 5604 5606 5608 5612 5614 5617 5620 5623 5625 5626 5628 5630 5634 5637 5640 5643 5644 5646 5648 5650 5651 5654 5655 5657 5659 5657
5675 5680 5683 5685 5686 5688 5688 5685 5682 5680 5675 5670 5666 5662 5657 5649 5640 5630 5620 5608 5603 5599 5599 5601 5606 5609 5611 5616 5618 5621 5622 5625 5628 5630 5633 5636 5638 5639 5641 5642 5644 5648 5649 5649 5650 5651 5651
5666 5671 5674 5677 5678 5680 5682 5679 5677 5675 5671 5667 5664 5660 5653 5646 5638 5628 5615 5605 5600 5597 5594 5597 5599 5603 5605 5609 5612 5616 5619 5621 5624 5626 5628 5631 5632 5634 5637 5638 5640 5642 5643 5643 5643 5644 5644
5656 5662 5666 5668 5670 5673 5674 5673 5671 5669 5666 5663 5660 5656 5650 5643 5636 5626 5613 5603 5596 5592 5590 5591 5593 5595 5599 5603 5605 5609 5613 5617 5620 5622 5624 5626 5628 5629 5631 5632 5635 5635 5636 5637 5638 5638 5638
5648 5653 5658 5660 5663 5666 5666 5666 5665 5664 5661 5658 5656 5651 5646 5642 5634 5624 5611 5601 5593 5589 5587 5586 5588 5591 5594 5599 5601 5604 5607 5610 5612 5615 5616 5619 5621 5623 5625 5626 5627 5629 5630 5630 5631 5632 5633
5639 5644 5648 5652 5656 5658 5659 5659 5659 5658 5656 5654 5651 5647 5642 5638 5631 5621 5611 5600 5590 5586 5584 5582 5584 5587 5590 5594 5596 5599 5602 5605 5608 5610 5612 5614 5615 5617 5619 5620 5623 5622 5624 5625 5626 5630 5628
5630 5636 5640 5643 5647 5650 5653 5653 5653 5652 5650 5648 5645 5642 5639 5634 5628 5618 5607 5598 5590 5584 5583 5581 5580 5583 5587 5591 5594 5596 5598 5601 5603 5606 5607 5610 5612 5613 5614 5616 5617 5617 5618 5620 5621 5621 5622
5620 5627 5632 5635 5638 5643 5645 5646 5646 5646 5645 5642 5640 5638 5635 5631 5625 5615 5605 5596 5588 5583 5580 5580 5579 5579 5581 5586 5589 5592 5594 5597 5600 5602 5604 5606 5608 5609 5611 5611 5611 5611 5612 5613 5615 5616 5616